Saint Michaels, AZ

3:35 PM MST on February 07, 2016 (GMT -0700)
Window Rock

Weather History for KRQE - July, 2013

Change the Weather History Date:

Sunday, July 21, 2013

  Actual Average Record
Temperature  
Mean Temperature 68 °F -  
Max Temperature 80 °F 84 °F 95 °F (1989)
Min Temperature 57 °F 56 °F 45 °F (1944)
Cooling Degree Days 4    
Growing Degree Days 18 (Base 50)    
Moisture  
Dew Point 53 °F    
Average Humidity 64    
Maximum Humidity 90    
Minimum Humidity 31    
Precipitation  
Precipitation 0.03 in - - ()
Sea Level Pressure  
Sea Level Pressure 29.86 in    
Wind  
Wind Speed 2 mph (SSW)    
Max Wind Speed 16 mph    
Max Gust Speed 29 mph    
Visibility 10 miles    
Events Rain    
Averages and records for this station are not official NWS values.
T = Trace of Precipitation, MM = Missing Value Source: NWS Daily Summary

Daily Weather History Graph

Daily Weather History Graph

Search for Another Location

Airport or City:

Trip Planner

Search our weather history database for the weather conditions in past years. The results will help you decide how hot, cold, wet, or windy it might be!

Date:

Astronomy

Jul. 21, 2013 Rise Set
Actual Time 6:16 AM MDT 8:28 PM MDT
Civil Twilight 5:47 AM MDT 8:57 PM MDT
Nautical Twilight 5:12 AM MDT 9:32 PM MDT
Astronomical Twilight 4:33 AM MDT 10:10 PM MDT
Moon 7:31 PM MDT (7/21) 5:05 AM MDT (7/21)
Length of Visible Light 15h 10m
Length of Day
14h 12m
Waxing Gibbous, 98% of the Moon is Illuminated
Jul 21
Waxing Gibbous
Jul 22
Full
Jul 29
Last Quarter
Aug 6
New
Aug 14
First Quarter

Hourly Weather History & Observations

Time (MDT) Temp. Dew Point Humidity Pressure Visibility Wind Dir Wind Speed Gust Speed Precip Events Conditions
12:53 AM 61.0 °F 54.0 °F 78% 29.83 in 10.0 mi Calm Calm - N/A   Partly Cloudy
1:53 AM 60.1 °F 53.1 °F 78% 29.81 in 10.0 mi Calm Calm - N/A   Clear
2:53 AM 59.0 °F 54.0 °F 83% 29.80 in 10.0 mi Calm Calm - N/A   Clear
3:53 AM 57.9 °F 52.0 °F 81% 29.78 in 10.0 mi Calm Calm - N/A   Clear
4:53 AM 57.0 °F 53.1 °F 87% 29.81 in 10.0 mi Calm Calm - N/A   Mostly Cloudy
5:53 AM 59.0 °F 52.0 °F 78% 29.83 in 10.0 mi Calm Calm - N/A   Partly Cloudy
7:53 AM 61.0 °F 53.1 °F 75% 29.86 in 10.0 mi Calm Calm - N/A   Scattered Clouds
8:53 AM 64.9 °F 54.0 °F 68% 29.86 in 10.0 mi Calm Calm - N/A   Scattered Clouds
9:53 AM 71.1 °F 54.0 °F 55% 29.85 in 10.0 mi Calm Calm - N/A   Clear
10:53 AM 75.0 °F 51.1 °F 43% 29.85 in 10.0 mi Calm Calm - N/A   Clear
11:53 AM 75.9 °F 52.0 °F 43% 29.84 in 10.0 mi Calm Calm - N/A   Mostly Cloudy
12:53 PM 79.0 °F 46.9 °F 32% 29.83 in 10.0 mi Calm Calm - N/A   Clear
1:53 PM 79.0 °F 51.1 °F 38% 29.80 in 10.0 mi SW 9.2 mph - N/A   Clear
2:53 PM 80.1 °F 46.9 °F 31% 29.78 in 10.0 mi Calm Calm - N/A   Clear
3:36 PM 80.6 °F 50.0 °F 34% 30.14 in 10.0 mi NNW 15.0 mph 28.8 mph N/A   Partly Cloudy
3:53 PM 78.1 °F 46.9 °F 33% 29.79 in 10.0 mi North 16.1 mph - N/A   Partly Cloudy
4:53 PM 68.0 °F 55.0 °F 63% 29.85 in 10.0 mi South 11.5 mph - N/A   Overcast
5:53 PM 69.1 °F 53.1 °F 57% 29.87 in 10.0 mi East 3.5 mph - 0.00 in Rain Light Rain
6:53 PM 66.0 °F 59.0 °F 78% 29.86 in 10.0 mi SSW 3.5 mph - 0.01 in   Overcast
7:53 PM 64.9 °F 53.1 °F 65% 29.87 in 10.0 mi South 12.7 mph 21.9 mph 0.00 in Rain Light Rain
8:53 PM 61.0 °F 55.9 °F 83% 29.93 in 10.0 mi SSW 10.4 mph - 0.01 in Rain Light Rain
9:53 PM 60.1 °F 57.0 °F 90% 29.95 in 10.0 mi Calm Calm - 0.01 in Rain Light Rain
10:53 PM 60.1 °F 55.9 °F 86% 29.91 in 10.0 mi Calm Calm - 0.00 in   Clear
11:53 PM 61.0 °F 55.0 °F 81% 29.88 in 10.0 mi Calm Calm - N/A   Scattered Clouds